Regional Weather Roundup
Issued by NWS

Home | Current Version | Previous Version | Text Only | Print | Product List | Glossary On
Versions: 1 2 3 4 5 6 7 8 9 10 11 12 13 14 15 16 17 18 19 20 21 22 23 24 25 26 27 28 29 30 31 32 33 34 35 36 37 38 39 40 41 42 43 44 45 46 47 48 49 50
000
ASUS42 KFFC 230610
RWRGA
WEATHER ROUNDUP FOR GEORGIA
NATIONAL WEATHER SERVICE PEACHTREE CITY GA
100 AM EST THU FEB 23 2017

NOTE: "FAIR" INDICATES FEW OR NO CLOUDS BELOW 12,000 FEET WITH NO
SIGNIFICANT WEATHER AND/OR OBSTRUCTIONS TO VISIBILITY.

* = USE WITH CAUTION. THE STATIONS MARKED WITH AN ASTERISK MAY NOT
REPORT WEATHER SUCH AS PRECIPITATION, FOG, OR THUNDER AND ARE NOT
QUALITY CONTROLLED BY NWS.

THE REMARK "TC" DENOTES TEMPERATURE READING IN DEGREES CELSIUS.

GAZ001>058-230700-
NORTH GEORGIA

CITY           SKY/WX    TMP DP  RH WIND       PRES   REMARKS
ATLANTA        MOCLDY    59  57  93 NE9       29.89R
6HR MIN TEMP:  57; 6HR MAX TEMP:  66; 6HR PCP: TRACE;

ATHENS         CLOUDY    58  56  93 E8        29.89F
6HR MIN TEMP:  57; 6HR MAX TEMP:  61;

CHAMBLEE       CLOUDY    58  54  86 E5        29.89S
6HR MIN TEMP:  57; 6HR MAX TEMP:  63;

PEACHTREE CITY MOCLDY    61  58  90 NE3       29.88S
6HR MIN TEMP:  61; 6HR MAX TEMP:  67;

ROME           FOG       51  49  92 CALM      29.88F VSB 1/2
6HR MIN TEMP:  52; 6HR MAX TEMP:  62;

WEST ATLANTA   CLOUDY    57  54  89 CALM      29.89R
6HR MIN TEMP:  56; 6HR MAX TEMP:  64;

GAINESVILLE    CLOUDY    58  55  90 E7        29.92S
6HR MIN TEMP:  57; 6HR MAX TEMP:  60;

CARTERSVILLE   PTCLDY    57  54  89 CALM      29.90R
6HR MIN TEMP:  55; 6HR MAX TEMP:  61;



CITY           SKY/WX    TMP DP  RH WIND       PRES   REMARKS
DALTON*        CLEAR     50  50 100 CALM      29.88F
MARIETTA       PTCLDY    57  55  94 E3        29.89S
CANTON*        CLEAR     55  52  88 CALM      29.91S
$$

GAZ059>098-102>109-230700-
CENTRAL GEORGIA

CITY           SKY/WX    TMP DP  RH WIND       PRES   REMARKS
AUGUSTA-BUSH   CLOUDY    59  56  89 CALM      29.87R
6HR MIN TEMP:  57; 6HR MAX TEMP:  70;

AUGUSTA-DANIEL MOCLDY    64  56  75 N6        29.89R
6HR MIN TEMP:  64; 6HR MAX TEMP:  70;

COLUMBUS       CLOUDY    63  58  83 E8        29.83S
6HR MIN TEMP:  61; 6HR MAX TEMP:  67;

MACON          CLOUDY    60  58  92 NE7       29.85F
6HR MIN TEMP:  59; 6HR MAX TEMP:  64;

ROBINS AFB     PTCLDY    59  58  96 CALM      29.84F


CITY           SKY/WX    TMP DP  RH WIND       PRES   REMARKS
LAGRANGE*      MOCLDY    60  60 100 CALM      29.85F
SYLVANIA*      CLOUDY   N/A N/A N/A E6        29.84F
MILLEDGEVILLE* CLEAR     61  61 100 CALM      29.87F
$$

GAZ099>101-110>166-230700-
SOUTH GEORGIA

CITY           SKY/WX    TMP DP  RH WIND       PRES   REMARKS
SAVANNAH       CLOUDY    62  59  90 NE8       29.82F
6HR MIN TEMP:  62; 6HR MAX TEMP:  67;

VALDOSTA       CLOUDY    62  61  96 NE7       29.77F
6HR MIN TEMP:  62; 6HR MAX TEMP:  64;

ALMA           MOCLDY    63  63 100 E5        29.79F
6HR MIN TEMP:  63; 6HR MAX TEMP:  65; 6HR PCP:  0.31;

ST SIMONS      MOCLDY    65  62  90 NE8       29.77F
6HR MIN TEMP:  64; 6HR MAX TEMP:  66; 6HR PCP: TRACE;

FT STEWART     CLOUDY    62  60  95 N3        29.79F
ALBANY         CLOUDY    65  62  90 NE12      29.83R
HUNTER AFB     CLOUDY    63  63 100 CALM      29.80S
MOODY AFB      MOCLDY    63  61  95 NE9       29.76F
BRUNSWICK      MOCLDY    64  64 100 E8        29.79F


CITY           SKY/WX    TMP DP  RH WIND       PRES   REMARKS
BAINBRIDGE*    CLOUDY    61  59  94 NE5       29.80S
MOULTRIE*      MOCLDY    64  61  88 NE6       29.79F
VIDALIA*       CLOUDY    61  61 100 NE5       29.81F
WAYCROSS*      CLOUDY    66  66 100 NE8       29.78F
DOUGLAS*       PTCLDY    63  61  94 NE5       29.80F
$$




USA.gov is the U.S. government's official web portal to all federal, state and local government web resources and services.